This demonstration page uses our WeatherBlox Daily Observations layout. Learn more.

Left ArrowRight Arrow

39.01783, -85.05884

Hourly Observations for October 3, 2020

Temp ( °F °C ) Dew Point ( °F °C ) Humidity (%) Winds ( mph kmh ) Pressure ( in mb ) Visibility ( mi km ) Precip ( " mm )
12:52 am 00:52 Cloudy 54 12.2 41 5 62 62 NE 6 9 30.17 1022 10 16.0934 0 0
1:52 am 01:52 Cloudy 54 12.2 40 4.4 59 59 E 5 7 30.17 1022 10 16.0934 0 0
2:52 am 02:52 Partly Cloudy 49 9.4 40 4.4 71 71 N 6 9 30.18 1022 10 16.0934 0 0
3:52 am 03:52 Mostly Cloudy 51 10.6 38 3.3 61 61 NNE 7 11 30.17 1022 10 16.0934 0 0
4:52 am 04:52 Cloudy 50 10 38 3.3 63 63 ENE 7 11 30.17 1022 10 16.0934 0 0
5:52 am 05:52 Cloudy 49 9.4 41 5 74 74 NNW 3 6 30.19 1022 10 16.0934 0 0
6:52 am 06:52 Cloudy 50 10 39 3.9 66 66 E 5 7 30.2 1023 10 16.0934 0 0
7:52 am 07:52 Partly Cloudy 46 7.8 40 4.4 79 79 NNW 3 6 30.21 1023 10 16.0934 0 0
8:52 am 08:52 Mostly Cloudy 49 9.4 42 5.6 77 77 Calm 30.22 1023 10 16.0934 0 0
9:52 am 09:52 Mostly Cloudy 53 11.7 42 5.6 66 66 Calm 30.22 1023 10 16.0934 0 0
10:52 am 10:52 Mostly Sunny 58 14.4 43 6.1 58 58 SW 5 7 30.21 1023 10 16.0934 0 0
11:52 am 11:52 Sunny 62 16.7 40 4.4 44 44 S 9 15 30.2 1023 10 16.0934 0 0
12:52 pm 12:52 Partly Cloudy 63 17.2 39 3.9 41 41 WSW 9 15 30.2 1023 10 16.0934 0 0
1:52 pm 13:52 Mostly Cloudy 63 17.2 38 3.3 40 40 SW 8 13 30.18 1022 10 16.0934 0 0
2:52 pm 14:52 Mostly Cloudy 65 18.3 39 3.9 39 39 S 12 19 30.16 1021 10 16.0934 0 0
3:52 pm 15:52 Mostly Cloudy 63 17.2 38 3.3 40 40 Calm 30.14 1021 10 16.0934 0 0
4:52 pm 16:52 Mostly Cloudy 62 16.7 38 3.3 41 41 SSW 8 13 30.14 1021 10 16.0934 0 0
5:52 pm 17:52 Mostly Cloudy 64 17.8 40 4.4 41 41 SSW 7 11 30.13 1020 10 16.0934 0 0
6:52 pm 18:52 Mostly Cloudy 61 16.1 41 5 48 48 Calm 30.14 1021 10 16.0934 0 0
7:52 pm 19:52 Mostly Cloudy 57 13.9 41 5 55 55 Calm 30.14 1021 10 16.0934 0 0
8:52 pm 20:52 Mostly Cloudy 57 13.9 42 5.6 58 58 SE 3 6 30.14 1021 10 16.0934 0 0
9:52 pm 21:52 Cloudy 56 13.3 44 6.7 65 65 Calm 30.15 1021 10 16.0934 0 0
10:52 pm 22:52 Cloudy 56 13.3 45 7.2 67 67 Calm 30.15 1021 10 16.0934 0 0
11:52 pm 23:52 Cloudy with Light Rain 54 12.2 46 7.8 75 75 SW 7 11 30.16 1021 10 16.0934 0.001 0.001

Powered by AerisWeather